User: anonymous   Login
Location: Unspecified
(0.0000°N, 0.0000°E)
Time: 21:30:05
(UTC+00:00)
Language:

PAYLOAD C - Orbit

View from above orbital plane
View from above orbital plane
View from above satellite
View from above satellite

Ground track
Ground track

The orbit data is extracted from the following two-line orbital elements,

1 27842U 03031C   18343.93132374 +.00000022 +00000-0 +29531-4 0  9999
2 27842 098.6828 348.5174 0009060 190.6552 169.4435 14.22191987801309
Epoch (UTC): 09 December 2018 22:21:06
Eccentricity: 0.0009060
inclination: 98.6828°
perigee height: 811 km
apogee height: 824 km
right ascension of ascending node: 348.5174°
argument of perigee: 190.6552°
revolutions per day: 14.22191987
mean anomaly at epoch: 169.4435°
orbit number at epoch: 80130

The dashed part of the orbit path shows where the satellite is in the earth's shadow,  

DLR